Location: Feigenhofen
(48.4939°N, 10.7793°E)
Time: 23:15:38
(UTC+00:00)

NOSS 0 Rocket - Pass Details

Date: 26 May 2022
Orbit: 935 x 954 km, 70.0° (Epoch: 24 June)

Event Time Altitude Azimuth Distance (km) Brightness Sun altitude
Exits shadow 00:29:22 28° 219° (SW) 1,694 4.7 -18.4°
Maximum altitude 00:32:49 77° 301° (WNW) 983 4.0 -18.2°
Drops below altitude 10° 00:39:05 10° 28° (NNE) 2,690 7.6 -17.9°
Sets 00:41:38 0° 30° (NNE) 3,638 8.7 -17.7°
